Showing default

COSMOS 1238, 12138

Orbit data source: Space-Track

COSMOS 1238, 12138 is a payload satellite owned by PVO (CIS) in LEO that was launched on Fri, 16 Jan 1981 UTC via a KOSMOS 11K65M launch vehicle from the Plesetsk Missile And Space Complex (PKMTR). Payload-class satellites include a variety of spacecraft equipped with specific instruments for various scientific and technological missions. These include communications satellites like Starlink; space stations such as the ISS; scientific satellites like the Hubble; Earth observation satellites from companies like Planet Labs, Umbra, and HawkEye 360; GPS; miniature CubeSats for education and research; and military/defense satellites.

Loading next visibility...
Identifier
12138, 1981-003A
Orbit
LEO
Country
Flag of CISCIS
Related business
Manufacturer
Yuzhnoe
Mission
Spacecraft
Bus & Motor
VEKTOR, Unknown motor
Mass
570 kg wet, 570 kg dry
Launch date (UTC)
1981-01-16 (45 years ago)
Launch vehicle
KOSMOS 11K65M
Launch site
Plesetsk Missile And Space Complex (PKMTR)
Object type
Payload
Rocket body
Debris
Shape & HBR
Unknown
Radar Cross Section
Large (>1 m²)

Expand to show TLE details & history
Last TLE update: 7 hours ago

TLE from 7 hours ago
0 COSMOS 1238
1 12138U 81003A   26095.26894988  .00002941  00000-0  19907-3 0  9998
2 12138  82.9537 276.0813 0638534 294.7451  58.8573 14.12593731259614
Epoch: 2026-04-05T06:27Z
TLE epoch observation values (Epoch: 2026-04-05T06:27:17.269Z)
Latitude
-0.00008°
Longitude
-14.31746°
Altitude
637.391 km
Speed
7.651 km/s
True Right ascension
18h 24m 19s
True Declination
0° 00' 00"
Sunlit
Object was in daylight at epoch
Visualization orbit readout
Latitude
Unknown
Longitude
Unknown
Altitude
Unknown
Speed
Unknown
Apparent Right ascension
Unknown
Apparent Declination
Unknown
Sunlit
N/A
Visualization observer readout
Local Sidereal Time
19:20:19
Azimuth
Unknown
Elevation
Unknown
Doppler factor
Unknown
Orbital elements
Apogee altitude
1,308.975 km
Perigee altitude
386.201 km
Semi-major axis
7,225.725 km
Eccentricity
0.06385
Inclination
82.9537°
RAAN
276.0813°
Arg. of periapsis
294.7451°
True anomaly
65.37484°
Mean anomaly
58.8573°
Eccentric anomaly
62.09029°
Mean motion
3.53363 °/min
Orbital period
101.88 mins
BSTAR
0.00019907
Loading maneuver chart data...
Computing Atmospheric mass density...
Loading historical data...
Loading historical data...
Loading historical data...
Loading historical data...
Loading historical data...
Loading historical data...
Loading historical data...
Other satellites on launch #3 in the year 1981 (1981-01-16 UTC)

Documentation

Showing up to 5 results
|